Regional Weather Roundup
Issued by NWS Albany, NY

Home | Current Version | Previous Version | Graphics & Text | Print | Product List | Glossary On
Versions: 1 2 3 4 5 6 7 8 9 10 11 12 13 14 15 16 17 18 19 20 21 22 23 24 25 26 27 28 29 30 31 32 33 34 35 36 37 38 39 40 41 42 43 44 45 46 47 48 49 50
000
ASUS41 KALY 220210
RWRALY

NEW YORK STATE HOURLY WEATHER ROUNDUP
NATIONAL WEATHER SERVICE ALBANY NY
1000 PM EDT MON JUL 21 2014

NOTE: "FAIR" INDICATES FEW OR NO CLOUDS BELOW 12,000 FEET WITH NO
SIGNIFICANT WEATHER AND/OR NO OBSTRUCTIONS TO VISIBILITY.

NYZ032-033-038>043-046>054-057>066-NYZ062>081-220300-
EAST


CITY           SKY/WX    TMP DP  RH WIND       PRES   REMARKS
ALBANY         PTCLDY    75  63  66 SE3       30.13R
GLENS FALLS    PTCLDY    73  65  75 CALM      30.13R
POUGHKEEPSIE   CLOUDY    75  66  73 SE3       30.15R
NEWBURGH       MOCLDY    77  66  69 SW7       30.18R
MONTGOMERY     CLOUDY    73  66  78 SW3       30.16R
WHITE PLAINS   PTCLDY    69  62  78 S3        30.18R
ISLIP          PTCLDY    71  64  78 SW5       30.16S
NEW YORK CITY  PTCLDY    74  61  63 S8        30.17R
CENTRAL PARK   CLEAR     74  61  63 CALM      30.20R
$$

NYZ005>009-017-018-044>046-055-056-220300-
CENTRAL


CITY           SKY/WX    TMP DP  RH WIND       PRES   REMARKS
FULTON         CLEAR     69  66  90 CALM      30.12R
SYRACUSE       MOCLDY    76  67  73 CALM      30.12R
ROME           PTCLDY    73  67  81 NE3       30.14R
ELMIRA         CLOUDY    77  67  71 CALM      30.15R
BINGHAMTON     MOCLDY    72  63  73 SW6       30.19R
MONTICELLO     CLEAR     70  64  83 S5        30.21R
$$

NYZ026>034-041>043-220300-
NORTH


CITY           SKY/WX    TMP DP  RH WIND       PRES   REMARKS
WATERTOWN      CLEAR     66  61  84 S3        30.12R
FORT DRUM      NOT AVBL
MASSENA        CLEAR     68  66  93 S3        30.11R
SARANAC LAKE   CLEAR     62  61  96 CALM      30.17R FOG
PLATTSBURGH    PTCLDY    71  65  81 VRB3      30.09R
$$

NYZ001>004-010>016-019>021-220300-
WEST


CITY           SKY/WX    TMP DP  RH WIND       PRES   REMARKS
NIAGARA FALLS  PTCLDY    71  62  73 S5        30.12R
BUFFALO        PTCLDY    72  57  59 W3        30.14R
DUNKIRK        CLEAR     68  61  78 CALM      30.14R
JAMESTOWN      CLEAR     66  57  72 CALM      30.19R
WELLSVILLE     CLOUDY    75  64  68 CALM      30.22R
ROCHESTER      CLEAR     72  66  81 CALM      30.13R
PENN YAN       PTCLDY    71  68  90 SW5       30.16R
$$

             KEY
       WCI = WIND CHILL INDEX
       VSB = VISIBILITY
       HX  = HEAT INDEX
$$


USA.gov is the U.S. government's official web portal to all federal, state and local government web resources and services.